{"data":{"norad_id":59709,"epoch":"2026-05-24T17:54:46.259136Z","epoch_age_seconds":87052,"freshness":"FRESH","line1":"1 59709U 24088B   26144.74636874  .00002440  00000+0  24998-4 0  9999","line2":"2 59709  53.1576 311.6457 0000901  88.4196 271.6925 15.69704028118219","mean_motion":15.69704028,"eccentricity":9.01e-5,"inclination_deg":53.1576,"raan_deg":311.6457,"arg_perigee_deg":88.4196,"mean_anomaly_deg":271.6925,"bstar":2.4998e-5,"rev_number":11821,"period_min":91.737039232469,"perigee_km":359.13675698831,"apogee_km":360.35092311569,"semimajor_km":6737.880840052,"source":"CELESTRAK","updated_at":"2026-05-25T13:38:19.045404Z"}}